Date String (YYYY-MM-DD hh:mm:ss) UTC,Instrument flags,absolute air pressure of the measurement (hPa),sample flow rate (lpm),inlet stack bypass flow (lpm),air temperature of the measurement (°C),ambient temperature measured by the external sensor (°C),aerosol sample conditioner tube jacket temperature (°C),OPC LED temperature (°C),internal box temperature (°C),relative humidity of the measurement (%),span deviation,mass concentration of particles derived from Lorenz-Mie calculation of OPC scattering (μg/m³),mass concentration of particles derived from Lorenz-Mie calculation of OPC scattering (μg/m³),mass concentration of particles derived from Lorenz-Mie calculation of OPC scattering (μg/m³)
DateTimeUTC,F1_M11,P_M11,Q1_M11,Q2_M11,T1_M11,T2_M11,T3_M11,T4_M11,T5_M11,U1_M11,ZSPAN_M11,X0_M11,X2_M11,X1_M11
2024-04-10 02:00:00,SystemResetWarning,0827.0,5.00,000.00,026.3,025.7,000.0,034.6,028.2,011.6,0004.4,0016.87,0006.12,0005.14
2024-04-10 02:01:00,SystemResetWarning,0827.0,5.00,000.00,026.3,025.7,000.0,034.6,028.2,011.5,0004.2,0016.93,0006.09,0005.08
2024-04-10 02:02:00,SystemResetWarning,0827.0,4.99,000.00,026.3,025.7,000.0,034.6,028.2,011.5,0004.1,0017.92,0006.10,0005.04
2024-04-10 02:03:00,SystemResetWarning,0827.0,5.00,000.00,026.4,025.7,000.0,034.6,028.2,011.2,0003.9,0017.88,0006.08,0004.99
2024-04-10 02:04:00,SystemResetWarning,0827.0,4.99,000.00,026.4,025.7,000.0,034.7,028.2,010.8,0003.8,0017.60,0006.02,0004.95
2024-04-10 02:05:00,SystemResetWarning,0827.1,4.99,000.00,026.4,025.7,000.0,034.7,028.3,010.2,0003.4,0018.07,0005.99,0004.93
2024-04-10 02:06:00,SystemResetWarning,0827.0,5.00,000.00,026.4,025.7,000.0,034.7,028.3,009.5,0003.6,0017.89,0005.98,0004.91
2024-04-10 02:07:00,SystemResetWarning,0827.1,5.00,000.00,026.4,025.8,000.0,034.7,028.3,010.3,0004.2,0018.11,0005.89,0004.82
2024-04-10 02:08:00,SystemResetWarning,0827.1,5.00,000.00,026.4,025.8,000.0,034.7,028.3,009.5,0004.1,0018.19,0005.86,0004.79
2024-04-10 02:09:00,SystemResetWarning,0827.1,5.01,000.00,026.4,025.8,000.0,034.8,028.3,008.8,0003.8,0017.74,0005.85,0004.72
2024-04-10 02:10:00,SystemResetWarning,0827.1,5.00,000.00,026.4,025.8,000.0,034.8,028.3,008.1,0003.7,0017.33,0005.72,0004.62
2024-04-10 02:11:00,SystemResetWarning,0827.1,5.00,000.00,026.4,025.8,000.0,034.8,028.3,007.6,0002.8,0016.84,0005.56,0004.48
2024-04-10 02:12:00,SystemResetWarning,0827.2,4.99,000.00,026.5,025.8,000.0,034.8,028.3,007.0,0004.1,0016.35,0005.38,0004.30
2024-04-10 02:13:00,SystemResetWarning,0827.1,4.99,000.00,026.5,025.8,000.0,034.8,028.3,007.0,0004.9,0015.61,0005.19,0004.10
2024-04-10 02:14:00,SystemResetWarning,0827.2,4.99,000.00,026.5,025.8,000.0,034.8,028.3,007.0,0001.8,0014.94,0005.01,0003.93
2024-04-10 02:15:00,SystemResetWarning,0827.2,5.01,000.00,026.5,025.8,000.0,034.8,028.4,006.7,0000.0,0014.18,0004.82,0003.71
2024-04-10 02:16:00,SystemResetWarning,0827.2,5.01,000.00,026.5,025.8,000.0,034.8,028.3,006.7,0000.0,0013.04,0004.62,0003.46
2024-04-10 02:17:00,SystemResetWarning,0827.2,4.99,000.00,026.5,025.8,000.0,034.8,028.3,006.6,0000.0,0011.84,0004.32,0003.20
2024-04-10 02:18:00,SystemResetWarning,0827.2,4.99,000.00,026.5,025.8,000.0,034.9,028.3,006.8,0000.0,0010.76,0004.16,0002.92
2024-04-10 02:19:00,SystemResetWarning,0827.2,5.00,000.00,026.5,025.8,000.0,034.9,028.4,006.7,0000.0,0009.40,0003.97,0002.52
2024-04-10 02:20:00,SystemResetWarning,0827.2,5.01,000.00,026.5,025.8,000.0,034.9,028.3,006.8,0000.0,0008.68,0003.76,0002.18
2024-04-10 02:21:00,SystemResetWarning,0827.2,5.00,000.00,026.5,025.7,000.0,034.9,028.3,006.7,0000.0,0008.59,0003.67,0001.92
2024-04-10 02:22:00,SystemResetWarning,0827.2,4.98,000.00,026.5,025.7,000.0,034.9,028.3,006.6,0000.0,0008.88,0003.58,0001.72
2024-04-10 02:23:00,SystemResetWarning,0827.3,5.00,000.00,026.5,025.7,000.0,034.9,028.3,006.7,0000.0,0009.61,0003.52,0001.60
2024-04-10 02:24:00,SystemResetWarning,0827.2,5.01,000.00,026.5,025.7,000.0,034.9,028.3,006.7,0000.0,0010.92,0003.54,0001.55
2024-04-10 02:25:00,SystemResetWarning,0827.3,5.01,000.00,026.5,025.7,000.0,034.9,028.3,006.7,0000.0,0011.29,0003.55,0001.51
2024-04-10 02:26:00,SystemResetWarning,0827.3,5.00,000.00,026.5,025.7,000.0,034.9,028.3,006.7,0000.0,0011.18,0003.52,0001.48
2024-04-10 02:27:00,SystemResetWarning,0827.3,5.00,000.00,026.5,025.7,000.0,034.9,028.3,006.7,0000.0,0011.42,0003.52,0001.47
2024-04-10 02:28:00,SystemResetWarning,0827.3,5.01,000.00,026.5,025.7,000.0,034.9,028.3,006.8,0000.0,0011.79,0003.54,0001.47
2024-04-10 02:29:00,SystemResetWarning,0827.4,5.00,000.00,026.5,025.7,000.0,034.9,028.3,006.9,0000.0,0011.71,0003.52,0001.47
2024-04-10 02:30:00,SystemResetWarning,0827.4,4.99,000.00,026.5,025.7,000.0,034.9,028.3,007.1,0000.0,0011.59,0003.51,0001.46
2024-04-10 02:31:00,SystemResetWarning,0827.4,4.99,000.00,026.5,025.7,000.0,034.9,028.3,007.2,0000.0,0011.66,0003.51,0001.48
2024-04-10 02:32:00,SystemResetWarning,0827.4,5.00,000.00,026.5,025.7,000.0,034.9,028.3,007.2,0000.0,0011.59,0003.49,0001.51
2024-04-10 02:33:00,SystemResetWarning,0827.4,5.00,000.00,026.5,025.7,000.0,034.9,028.3,007.3,0000.0,0011.45,0003.50,0001.53
2024-04-10 02:34:00,SystemResetWarning,0827.4,4.99,000.00,026.5,025.7,000.0,034.9,028.3,007.0,0000.0,0011.18,0003.52,0001.55
2024-04-10 02:35:00,SystemResetWarning,0827.8,5.00,000.00,026.5,025.7,000.0,034.9,028.3,007.0,0000.0,0010.06,0003.47,0001.56
2024-04-10 02:36:00,SystemResetWarning,0827.7,5.01,000.00,026.5,025.7,000.0,034.9,028.3,006.7,0000.0,0009.17,0003.44,0001.56
2024-04-10 02:37:00,SystemResetWarning,0827.6,5.01,000.00,026.5,025.7,000.0,034.9,028.3,006.5,0000.0,0009.09,0003.41,0001.57
2024-04-10 02:38:00,SystemResetWarning,0827.5,4.99,000.00,026.5,025.7,000.0,034.9,028.3,006.8,0000.0,0008.86,0003.38,0001.58
2024-04-10 02:39:00,SystemResetWarning,0827.5,4.99,000.00,026.5,025.6,000.0,034.9,028.3,006.7,0000.0,0008.55,0003.35,0001.57
2024-04-10 02:40:00,SystemResetWarning,0827.6,5.00,000.00,026.5,025.6,000.0,034.9,028.3,006.6,0000.0,0008.67,0003.36,0001.57
2024-04-10 02:41:00,SystemResetWarning,0827.6,5.00,000.00,026.5,025.6,000.0,034.9,028.2,006.7,0000.0,0008.85,0003.40,0001.57
2024-04-10 02:42:00,SystemResetWarning,0827.6,5.01,000.00,026.4,025.6,000.0,034.9,028.2,006.6,0000.0,0008.85,0003.38,0001.56
2024-04-10 02:43:00,SystemResetWarning,0827.5,5.01,000.00,026.4,025.6,000.0,034.9,028.2,006.6,0000.0,0008.90,0003.39,0001.55
2024-04-10 02:44:00,SystemResetWarning,0827.6,5.00,000.00,026.4,025.6,000.0,034.9,028.2,006.5,0000.0,0009.25,0003.37,0001.56
2024-04-10 02:45:00,SystemResetWarning,0827.7,5.00,000.00,026.4,025.6,000.0,034.9,028.2,006.7,0000.0,0010.33,0003.42,0001.57
2024-04-10 02:46:00,SystemResetWarning,0827.7,5.00,000.00,026.4,025.6,000.0,034.9,028.2,006.7,0000.0,0009.90,0003.42,0001.57
2024-04-10 02:47:00,SystemResetWarning,0827.7,5.00,000.00,026.4,025.5,000.0,034.9,028.2,006.6,0000.0,0010.12,0003.41,0001.57
2024-04-10 02:48:00,SystemResetWarning,0827.7,5.01,000.00,026.4,025.5,000.0,034.9,028.2,006.6,0000.0,0010.25,0003.44,0001.57
2024-04-10 02:49:00,SystemResetWarning,0827.7,5.01,000.00,026.4,025.5,000.0,034.9,028.2,006.7,0000.0,0010.18,0003.42,0001.57
2024-04-10 02:50:00,SystemResetWarning,0827.7,5.00,000.00,026.4,025.5,000.0,034.9,028.2,006.7,0000.0,0010.30,0003.50,0001.60
2024-04-10 02:51:00,SystemResetWarning,0827.7,5.00,000.00,026.4,025.5,000.0,034.9,028.2,006.8,0000.0,0010.09,0003.46,0001.60
2024-04-10 02:52:00,SystemResetWarning,0827.7,5.00,000.00,026.4,025.5,000.0,034.9,028.2,006.8,0000.0,0010.04,0003.46,0001.59
2024-04-10 02:53:00,SystemResetWarning,0827.7,5.00,000.00,026.4,025.5,000.0,034.9,028.2,006.9,0000.0,0010.15,0003.49,0001.59
2024-04-10 02:54:00,SystemResetWarning,0827.7,5.00,000.00,026.4,025.5,000.0,034.9,028.2,006.8,0000.0,0010.10,0003.51,0001.60
2024-04-10 02:55:00,SystemResetWarning,0827.7,5.00,000.00,026.4,025.5,000.0,034.9,028.2,006.8,0000.0,0009.83,0003.50,0001.60
2024-04-10 02:56:00,SystemResetWarning,0827.7,5.00,000.00,026.4,025.5,000.0,034.9,028.2,006.7,0000.0,0008.36,0003.47,0001.59
2024-04-10 02:57:00,SystemResetWarning,0827.7,4.99,000.00,026.4,025.5,000.0,034.9,028.2,006.9,0000.0,0008.71,0003.41,0001.56
2024-04-10 02:58:00,SystemResetWarning,0827.7,4.99,000.00,026.4,025.5,000.0,034.8,028.2,007.0,0000.0,0009.65,0003.45,0001.55
2024-04-10 02:59:00,SystemResetWarning,0827.7,5.00,000.00,026.4,025.5,000.0,034.8,028.1,007.1,0000.0,0009.70,0003.43,0001.55
